[[{"header":{"parameterUnit":"m.s-1","parameterCategory":1,"la1":30.2991,"la2":30.254,"lo1":-89.0895,"lo2":-89.0444,"dy":0.0017,"dx":0.0017,"nx":28,"ny":28,"refTime":"2024-05-27T21:00:00:Z","depth":0,"parameterNumber":2,"parameterNumberName":"U-component_of_WINDS"},"data":[0,0,0,0,0,0,0,0,0,0,0,0,0,0,0,0,0,0,0,0,0,0,0,0,0,0,0,0,0,0,0,0,0,0,0,0,0,0,0,0,0,0,0,0,0,0,0,0,0,0,0,0,0,0,0,0,0,0,0.1595,0.1597,0,0.1788,0.179,0.1792,0.1854,0.1854,0.1853,0.1852,0.2053,0.2059,0.2065,0,0,0,0,0,0,0,0,0,0,0,0,0,0.1281,0.1286,0.1595,0.1597,0.16,0.1788,0.179,0.1793,0.1855,0.1854,0.1852,0.1851,0.2051,0.2058,0.2066,0,0,0,0,0,0,0,0,0,0,0,0,0,0.144,0.1288,0.1594,0.1653,0.166,0.1787,0.179,0.1794,0.1855,0.1854,0.1852,0.1851,0.2049,0.2058,0.2067,0.215,0,0,0.2095,0.2099,0,0,0,0,0,0,0,0,0.1431,0.1452,0.1642,0.1649,0.1657,0.1796,0.1754,0.1913,0.1855,0.1781,0.1852,0.185,0.1969,0.1984,0.2024,0.216,0.2169,0.2096,0.2101,0.2105,0.2108,0,0,0,0,0,0,0,0.142,0.1444,0.1671,0.1645,0.1654,0.167,0.1691,0.1784,0.188,0.1787,0.1792,0.1814,0.1973,0.2015,0.2029,0.2171,0.2096,0.2104,0.211,0.2113,0.2385,0.2386,0,0,0,0,0,0,0.1399,0.1434,0.1665,0.1677,0.1538,0.1677,0.17,0.1753,0.1879,0.1897,0.1815,0.1816,0.1999,0.2018,0.2036,0.2142,0.2105,0.2114,0.2119,0.2383,0.2385,0.2387,0,0,0,0,0,0,0.1392,0.1419,0.1657,0.1557,0.1589,0.1684,0.1742,0.1757,0.1799,0.19,0.1918,0.184,0.1999,0.2023,0.2121,0.215,0.2118,0.2127,0.2381,0.2384,0.2386,0.2355,0,0,0,0,0,0,0.1382,0.1416,0.1448,0.1557,0.1594,0.1738,0.1744,0.1762,0.1815,0.1818,0.1928,0.1945,0.2,0.2107,0.213,0.2162,0.2134,0.2379,0.2382,0.2385,0.2353,0.2356,0.2357,0,0,0,0,0,0.1371,0.1433,0.145,0.1477,0.1636,0.174,0.1761,0.1822,0.1817,0.185,0.1915,0.1942,0.2143,0.2116,0.2143,0.2178,0.2378,0.2382,0.2385,0.2353,0.2355,0.2357,0,0,0,0,0,0,0.1326,0.1448,0.1468,0.1567,0.1642,0.175,0.1795,0.1823,0.1902,0.1902,0.1975,0.1999,0.2091,0.2145,0.2113,0.2265,0.2261,0.2271,0.2227,0.2231,0.2233,0.2218,0.2142,0,0,0,0,0,0.1327,0.1401,0.1504,0.1581,0.1617,0.1699,0.1747,0.1787,0.1868,0.1901,0.1973,0.2052,0.2133,0.2185,0.2265,0.2361,0.2386,0.2398,0.24,0.2401,0.2409,0.2463,0.2469,0.2399,0.2399,0.2399,0,0,0.1332,0.1407,0.1449,0.1574,0.1637,0.1712,0.1726,0.1805,0.1861,0.1914,0.201,0.2065,0.2158,0.2255,0.2301,0.2302,0.2433,0.2406,0.2406,0.2413,0.2467,0.2474,0.248,0.2402,0.2401,0.2401,0,0,0.1377,0.1442,0.1513,0.1575,0.167,0.1724,0.174,0.1844,0.1882,0.198,0.202,0.2088,0.2226,0.229,0.2341,0.2408,0.2436,0.2432,0.2444,0.2495,0.2501,0.2506,0.253,0.2538,0.2439,0.2439,0.2439,0,0.1371,0.1484,0.1546,0.1622,0.1676,0.1724,0.1797,0.1855,0.1971,0.2007,0.2006,0.2179,0.2245,0.2357,0.2373,0.2413,0.2434,0.2421,0.2495,0.2501,0.2507,0.253,0.2539,0.2438,0.2438,0.2438,0.2439,0,0.1471,0.1549,0.1595,0.1705,0.1764,0.1838,0.191,0.1962,0.1996,0.205,0.2148,0.2229,0.2325,0.2355,0.239,0.2472,0.2469,0.248,0.2478,0.2511,0.2535,0.2544,0.2437,0.2437,0.2437,0.2438,0,0,0.1496,0.1637,0.1653,0.1703,0.181,0.1872,0.1948,0.2041,0.2084,0.2162,0.2228,0.2342,0.2352,0.241,0.2452,0.2497,0.2545,0.2503,0.2506,0.2508,0.264,0.2631,0.264,0.2563,0.2565,0.2567,0.2632,0,0.1556,0.1693,0.1749,0.186,0.1933,0.1979,0.2045,0.2118,0.217,0.2239,0.2297,0.2376,0.2384,0.2419,0.2466,0.2529,0.2572,0.2525,0.2626,0.2628,0.2601,0.2653,0.2644,0.2702,0.2642,0.2643,0.2644,0,0.1644,0.1721,0.1838,0.1936,0.1968,0.2027,0.2116,0.2182,0.2265,0.2299,0.2362,0.2401,0.2483,0.2474,0.2587,0.2553,0.2597,0.2634,0.2638,0.2651,0.2639,0.2667,0.2722,0.2731,0.266,0.2658,0.2657,0,0.165,0.1783,0.1871,0.1912,0.2027,0.2067,0.2117,0.2199,0.2251,0.2329,0.2364,0.245,0.2498,0.2564,0.2626,0.2614,0.2733,0.2729,0.2764,0.2762,0.2788,0.2786,0.2851,0.2816,0.2815,0.2815,0.2815,0,0.1711,0.1781,0.1874,0.1928,0.2008,0.2072,0.2149,0.2203,0.2275,0.234,0.2385,0.2446,0.2523,0.2593,0.2642,0.2728,0.2749,0.2779,0.2792,0.2776,0.2772,0.2806,0.2804,0.2818,0.2817,0.2817,0.2816,0,0.1732,0.1797,0.1895,0.1996,0.2023,0.2077,0.2163,0.2217,0.227,0.2352,0.2375,0.2458,0.2543,0.261,0.2721,0.2754,0.2844,0.2858,0.2815,0.2822,0.2853,0.2849,0.2943,0.2959,0.2912,0.2912,0.2912,0,0.1766,0.1821,0.1927,0.1973,0.2022,0.2097,0.2149,0.2214,0.2267,0.2365,0.2407,0.2494,0.2568,0.2701,0.2772,0.2857,0.2873,0.29,0.2886,0.2868,0.2873,0.2869,0.2875,0.2902,0.2902,0.2902,0.2902,0,0.1821,0.185,0.1924,0.2009,0.207,0.214,0.2211,0.2246,0.2324,0.2381,0.2468,0.2524,0.2636,0.2723,0.2814,0.2867,0.2898,0.2906,0.2918,0.2903,0.2876,0.2891,0.282,0.2904,0.2903,0.2903,0.2903,0.2903,0.185,0.19,0.1982,0.2063,0.2123,0.2188,0.2243,0.2302,0.2374,0.247,0.2504,0.2592,0.2674,0.28,0.2852,0.2922,0.2925,0.2943,0.2948,0.2952,0.2949,0.2864,0.2939,0.294,0.294,0.294,0.294,0,0.1907,0.1962,0.2035,0.2132,0.2195,0.2217,0.2296,0.2347,0.2424,0.2497,0.2568,0.2666,0.2749,0.2826,0.2913,0.2954,0.2971,0.2975,0.2973,0.2984,0.2942,0.2923,0.296,0.296,0.296,0.296,0.296,0.296,0.1944,0.203,0.2069,0.2185,0.2239,0.2325,0.2369,0.2429,0.2487,0.2594,0.2663,0.2712,0.2786,0.2879,0.2956,0.2976,0.3006,0.3007,0.3031,0.299,0.2988,0.2985,0.2967,0.3013,0.3013,0.3067,0.3068,0.3068]},{"header":{"parameterUnit":"m.s-1","parameterCategory":1,"la1":30.2991,"la2":30.254,"lo1":-89.0895,"lo2":-89.0444,"dy":0.0017,"dx":0.0017,"nx":28,"ny":28,"refTime":"2024-05-27T21:00:00:Z","depth":0,"parameterNumber":3,"parameterNumberName":"V-component_of_WINDS"},"data":[0,0,0,0,0,0,0,0,0,0,0,0,0,0,0,0,0,0,0,0,0,0,0,0,0,0,0,0,0,0,0,0,0,0,0,0,0,0,0,0,0,0,0,0,0,0,0,0,0,0,0,0,0,0,0,0,0,0,3.2015,3.2015,0,3.2005,3.2005,3.2005,3.2033,3.2034,3.2035,3.2036,3.2021,3.2019,3.2018,0,0,0,0,0,0,0,0,0,0,0,0,0,3.2051,3.205,3.2015,3.2015,3.2014,3.2005,3.2005,3.2005,3.2033,3.2034,3.2035,3.2036,3.2021,3.202,3.2018,0,0,0,0,0,0,0,0,0,0,0,0,0,3.2038,3.205,3.2015,3.2027,3.2028,3.2005,3.2005,3.2005,3.2033,3.2034,3.2035,3.2037,3.2021,3.202,3.2018,3.1981,0,0,3.2012,3.2012,0,0,0,0,0,0,0,0,3.2038,3.2036,3.2026,3.2026,3.2028,3.2022,3.2013,3.1997,3.2032,3.2031,3.2036,3.2037,3.202,3.2018,3.2013,3.198,3.1979,3.2012,3.2011,3.201,3.201,0,0,0,0,0,0,0,3.2039,3.2037,3.2011,3.2025,3.2027,3.2032,3.2031,3.201,3.2018,3.2031,3.2033,3.2032,3.202,3.2015,3.2013,3.1979,3.2012,3.2011,3.2009,3.2009,3.1913,3.1911,0,0,0,0,0,0,3.2039,3.2037,3.2011,3.2011,3.2037,3.203,3.203,3.2022,3.2018,3.2019,3.2031,3.2033,3.2017,3.2015,3.2013,3.1967,3.201,3.2009,3.2008,3.1914,3.1912,3.1911,0,0,0,0,0,0,3.204,3.2037,3.2012,3.2025,3.2022,3.2028,3.202,3.2021,3.2016,3.2018,3.2019,3.2024,3.2018,3.2015,3.1988,3.1967,3.2008,3.2006,3.1916,3.1914,3.1912,3.1877,0,0,0,0,0,0,3.2041,3.2037,3.2024,3.2024,3.2021,3.1989,3.2018,3.202,3.2014,3.2017,3.2012,3.2012,3.2019,3.1991,3.1987,3.1965,3.2005,3.1918,3.1915,3.1912,3.188,3.1874,3.1869,0,0,0,0,0,3.2042,3.2014,3.2023,3.202,3.2005,3.1988,3.1986,3.1995,3.2012,3.1998,3.1999,3.2013,3.1971,3.1988,3.1983,3.1961,3.1919,3.1916,3.1913,3.1882,3.1875,3.1869,0,0,0,0,0,0,3.2009,3.2014,3.2024,3.1996,3.1991,3.1992,3.1975,3.1987,3.1977,3.198,3.1991,3.199,3.196,3.1958,3.1977,3.1924,3.1947,3.1943,3.1926,3.1919,3.1914,3.1913,3.2003,0,0,0,0,0,3.1999,3.1986,3.199,3.1964,3.1961,3.1969,3.1961,3.197,3.1965,3.1962,3.1962,3.1955,3.194,3.193,3.1916,3.1881,3.1879,3.1863,3.1857,3.1853,3.1848,3.1827,3.1819,3.19,3.19,3.19,0,0,3.1976,3.1977,3.1968,3.1957,3.1955,3.1939,3.1967,3.1949,3.1937,3.1959,3.1934,3.1933,3.1926,3.1894,3.188,3.1891,3.1826,3.1848,3.1845,3.1842,3.1823,3.1815,3.1808,3.1898,3.1898,3.1899,0,0,3.1927,3.1928,3.1906,3.1903,3.19,3.1905,3.1899,3.1899,3.19,3.1875,3.1891,3.1876,3.185,3.1844,3.1838,3.1787,3.1798,3.1782,3.1752,3.1731,3.1725,3.1719,3.1699,3.1691,3.1778,3.1778,3.1778,0,3.1899,3.1878,3.1892,3.1874,3.1867,3.1889,3.1865,3.1861,3.1853,3.1847,3.1861,3.1829,3.1826,3.1792,3.178,3.1775,3.1767,3.1782,3.1725,3.1719,3.1714,3.1695,3.1687,3.1776,3.1776,3.1776,3.1776,0,3.1843,3.1828,3.181,3.1803,3.1795,3.1774,3.1783,3.1773,3.1782,3.1785,3.1758,3.1756,3.1742,3.1735,3.1743,3.1701,3.1708,3.1724,3.1747,3.1704,3.1686,3.1679,3.1773,3.1774,3.1774,3.1775,0,0,3.1771,3.1773,3.1766,3.1763,3.1761,3.1748,3.1728,3.1716,3.1706,3.1699,3.168,3.1659,3.1673,3.1665,3.1673,3.1655,3.1612,3.1672,3.1672,3.1659,3.1564,3.1552,3.1543,3.1621,3.162,3.1619,3.1564,0,3.1721,3.1688,3.17,3.1664,3.1649,3.167,3.1651,3.1647,3.1649,3.1635,3.1638,3.1621,3.1642,3.1637,3.1621,3.1621,3.1593,3.1626,3.1601,3.16,3.16,3.1534,3.152,3.1469,3.1557,3.1556,3.1556,0,3.1659,3.1651,3.1615,3.1615,3.1609,3.1592,3.1582,3.157,3.1564,3.1567,3.1559,3.157,3.1548,3.1573,3.1541,3.1562,3.1553,3.1552,3.155,3.1546,3.1573,3.1526,3.1453,3.1445,3.1545,3.1546,3.1547,0,3.1607,3.1588,3.1564,3.1561,3.156,3.1548,3.1547,3.1544,3.1535,3.1526,3.152,3.1507,3.1499,3.1488,3.1495,3.1513,3.146,3.1486,3.146,3.1459,3.1446,3.1446,3.1368,3.1444,3.1444,3.1444,3.1444,0,3.1549,3.1525,3.1541,3.1525,3.1499,3.1512,3.1485,3.1486,3.1483,3.1466,3.1483,3.1467,3.1478,3.1462,3.1467,3.1438,3.1435,3.1434,3.1435,3.1432,3.1431,3.1424,3.1427,3.1442,3.1442,3.1443,3.1443,0,3.1486,3.1496,3.147,3.1473,3.1473,3.1453,3.1454,3.1439,3.1443,3.1422,3.1418,3.1423,3.1405,3.1412,3.1392,3.1395,3.1358,3.1365,3.136,3.1361,3.1333,3.1334,3.1246,3.1234,3.1319,3.1318,3.1317,0,3.1448,3.143,3.1431,3.1423,3.1421,3.1406,3.1398,3.1411,3.1401,3.1394,3.1379,3.1363,3.1351,3.1321,3.1322,3.1307,3.1312,3.1282,3.1309,3.1305,3.1308,3.1308,3.1306,3.1275,3.1274,3.1273,3.1273,0,3.1377,3.1383,3.1372,3.1362,3.1353,3.1345,3.1339,3.133,3.1342,3.133,3.1313,3.1304,3.1285,3.1267,3.1254,3.125,3.1262,3.1265,3.1257,3.1252,3.1249,3.1248,3.1342,3.1266,3.1267,3.1267,3.1267,3.1268,3.1324,3.1309,3.1307,3.1294,3.1291,3.1285,3.127,3.1273,3.126,3.1246,3.1254,3.1234,3.1228,3.1211,3.1206,3.1188,3.1199,3.1189,3.1186,3.1183,3.1178,3.1254,3.1186,3.1186,3.1186,3.1186,3.1187,0,3.1252,3.1252,3.124,3.1232,3.1221,3.1236,3.123,3.1219,3.1201,3.1196,3.1184,3.1164,3.1147,3.1147,3.1131,3.1117,3.1122,3.1112,3.1112,3.1111,3.117,3.1177,3.1108,3.1109,3.1109,3.1109,3.1109,3.1109,3.1213,3.1188,3.1194,3.1167,3.1167,3.1148,3.1143,3.1136,3.1132,3.1109,3.1096,3.1098,3.1093,3.1078,3.1062,3.1063,3.1055,3.1042,3.1044,3.1099,3.1107,3.1114,3.1121,3.1041,3.1041,3.0986,3.0985,3.0985]}]]